This is the latest recevied weather packets stored in our database for station/object LA1HSA-13. If no packets are shown the sender has not sent any weather packets the latest 10 day(s).
| Time | Temp. | Humidity | Pressure | Rain* | Wind** | Luminosity | Snow |
|---|---|---|---|---|---|---|---|
| 1778142003 | 10° C | 42% | 1016.7 hPa | 0 mm | - | - | - |
| 1778141403 | 9.44° C | 46% | 1016.6 hPa | 0 mm | - | - | - |
| 1778140803 | 8.89° C | 46% | 1016.5 hPa | 0 mm | - | - | - |
| 1778140203 | 8.89° C | 46% | 1016.4 hPa | 0 mm | - | - | - |
| 1778139603 | 8.89° C | 47% | 1016.7 hPa | 0 mm | - | - | - |
| 1778139003 | 8.33° C | 48% | 1016.5 hPa | 0 mm | - | - | - |
| 1778138403 | 8.89° C | 48% | 1016.3 hPa | 0 mm | - | - | - |
| 1778137803 | 7.78° C | 49% | 1016.2 hPa | 0 mm | - | - | - |
| 1778137203 | 7.78° C | 51% | 1016.2 hPa | 0 mm | - | - | - |
| 1778136603 | 7.22° C | 50% | 1016.2 hPa | 0 mm | - | - | - |
| 1778136003 | 7.22° C | 50% | 1016.3 hPa | 0 mm | - | - | - |
| 1778135403 | 6.67° C | 54% | 1016.2 hPa | 0 mm | - | - | - |
| 1778134803 | 5.56° C | 54% | 1016.1 hPa | 0 mm | - | - | - |
| 1778134203 | 4.44° C | 57% | 1016 hPa | 0 mm | - | - | - |
| 1778133603 | 3.89° C | 61% | 1016.1 hPa | 0 mm | - | - | - |
| 1778133003 | 2.78° C | 63% | 1016.2 hPa | 0 mm | - | - | - |
| 1778132403 | 2.78° C | 64% | 1015.7 hPa | 0 mm | - | - | - |
| 1778131803 | 2.22° C | 65% | 1015.7 hPa | 0 mm | - | - | - |
| 1778131203 | 1.67° C | 65% | 1015.7 hPa | 0 mm | - | - | - |
| 1778130603 | 1.67° C | 67% | 1015.6 hPa | 0 mm | - | - | - |
| 1778130003 | 1.67° C | 67% | 1015.9 hPa | 0 mm | - | - | - |
| 1778129403 | 1.67° C | 66% | 1015.4 hPa | 0 mm | - | - | - |
| 1778128803 | 1.11° C | 66% | 1015.4 hPa | 0 mm | - | - | - |
| 1778128203 | 0.56° C | 69% | 1015.2 hPa | 0 mm | - | - | - |
| 1778127603 | 0° C | 70% | 1015.3 hPa | 0 mm | - | - | - |
* Rain latest hour (hover to see other rain measurements)
** Current wind speed in m/s (hover to see current wind gust speed)